Regional Weather Roundup
Issued by NWS

Home | Current Version | Previous Version | Text Only | Print | Product List | Glossary On
Versions: 1 2 3 4 5 6 7 8 9 10 11 12 13 14 15 16 17 18 19 20 21 22 23 24 25 26 27 28 29 30 31 32 33 34 35 36 37 38 39 40 41 42 43 44 45 46 47 48 49 50
329
ASUS44 KLIX 200405
RWRLA
LOUISIANA WEATHER ROUNDUP
NATIONAL WEATHER SERVICE NEW ORLEANS LA
1000 PM CST FRI DEC 19 2014

NOTE: "FAIR" INDICATES FEW OR NO CLOUDS BELOW 12,000 FEET WITH NO
      SIGNIFICANT WEATHER AND/OR OBSTRUCTIONS TO VISIBILITY.
      SKY/WX - SKY CONDITION AND SIGNIFICANT WEATHER.
      TMP - AIR TEMPERATURE.    DP   - DEWPOINT TEMPERATURE.
      RH  - RELATIVE HUMIDITY.  PRES - PRESSURE.
      HX  - HEAT INDEX.         WCI  - WIND CHILL INDEX.

*  THESE STATIONS ARE NOT NWS OR FAA STATIONS AND ARE NOT UNDER
   NWS QUALITY CONTROL.

LAZ040-048-061>063-065-066-069-200500-
SOUTHEAST LOUISIANA

CITY           SKY/WX    TMP DP  RH WIND       PRES   REMARKS
N.O. AUDUBON     N/A     50  49  99 MISG        N/A
N.O. INTL ARPT LGT RAIN  51  48  89 NE13      30.08F
N.O. LAKEFRONT LGT RAIN  52  48  86 NE16      30.10S FOG
N.O. DOWNTOWN* CLOUDY    50  45  81 NE8       30.09S
SLIDELL        LGT RAIN  48  46  93 NE8       30.09F FOG
BATON ROUGE    LGT RAIN  48  46  93 NE9       30.10S
BOOTHVILLE     CLOUDY    59  58  96 NE10      30.05S
BELLE CHASSE   RAIN      50  49  96 NE10      30.08R FOG
BOGALUSA*      LGT RAIN  49  46  88 NE5       30.13S
GALLIANO*      LGT RAIN  55  54  94 MISG      30.06F
NEW ROADS*     LGT RAIN  47  46  96 N3        30.12R
GONZALES*      DRIZZLE   50  50  99 NE5       30.09S
HAMMOND*       NOT AVBL
HOUMA*         LGT RAIN  51  50  97 NE12G18   30.07S
PORT FOURCHON* CLOUDY    59  57  94 NE16      30.06F

$$

LAZ041-044-053-054-200500-
SOUTHWEST LOUISIANA

CITY           SKY/WX    TMP DP  RH WIND       PRES   REMARKS
LAKE CHARLES   CLOUDY    52  50  93 NE12      30.09R
LAFAYETTE      LGT RAIN  50  50 100 VRB6      30.08S
PATTERSON      CLOUDY    52  46  82 NE12      30.08S
SALT POINT       N/A     53  49  86 VRB7      30.04F
NEW IBERIA     CLOUDY    51  49  92 E10       30.07F
CHENAULT AIRPK CLOUDY    51  50  97 N8        30.10R

$$

LAZ027-028-200500-
CENTRAL LOUISIANA

CITY           SKY/WX    TMP DP  RH WIND       PRES   REMARKS
FORT POLK      CLOUDY    47  46  98 N12       30.13R FOG
ALEXANDRIA INT LGT RAIN  48  46  93 NE7       30.15R
ALEXANDRIA     CLOUDY    48  45  89 VRB6      30.16R

$$

LAZ001-002-200500-
NORTHWEST LOUISIANA

CITY           SKY/WX    TMP DP  RH WIND       PRES   REMARKS
SHREVEPORT     CLOUDY    47  45  93 NE10      30.19R
BARKSDALE AFB  NOT AVBL
DTN SHREVEPORT CLOUDY    46  43  89 NE7       30.20R

$$

LAZ014-016-200500-
NORTHEAST LOUISIANA

CITY           SKY/WX    TMP DP  RH WIND       PRES   REMARKS
MONROE         CLOUDY    46  45  96 NE7       30.21R
TALLULAH       LGT RAIN  47  44  90 N8        30.20R

$$




USA.gov is the U.S. government's official web portal to all federal, state and local government web resources and services.